Weather History for Cumberland, MD

Change the Weather History Date:

Saturday, October 19, 2013

  Actual Average (KMRB) Record (KMRB)
Temperature  
Mean Temperature 47 °F 53 °F  
Max Temperature 59 °F 64 °F 84 °F (1953)
Min Temperature 35 °F 41 °F 25 °F (1948)
Degree Days  
Heating Degree Days 18 12  
Month to date heating degree days 183  
Since 1 July heating degree days 274  
Cooling Degree Days 0 0  
Month to date cooling degree days 8  
Year to date cooling degree days 893  
Moisture  
Dew Point 41 °F    
Average Humidity 82    
Maximum Humidity 100    
Minimum Humidity 54    
Precipitation  
Precipitation 0.00 in 0.09 in 1.75 in (1932)
Month to date precipitation 1.88  
Year to date precipitation 31.69  
Sea Level Pressure  
Sea Level Pressure 29.94 in    
Wind  
Wind Speed 2 mph (WSW)    
Max Wind Speed 16 mph    
Max Gust Speed 26 mph    
Visibility 7 miles    
Events      
T = Trace of Precipitation, MM = Missing Value Source: NWS Daily Summary

Daily Weather History Graph

Daily Weather History Graph

Search for Another Location

Airport:

Trip Planner

Search our weather history database for the weather conditions in past years. The results will help you decide how hot, cold, wet, or windy it might be!

Date:

Astronomy

Oct. 19, 2013 Rise Set
Actual Time 7:29 AM EDT 6:29 PM EDT
Civil Twilight 7:02 AM EDT 6:57 PM EDT
Nautical Twilight 6:30 AM EDT 7:28 PM EDT
Astronomical Twilight 5:59 AM EDT 7:59 PM EDT
Moon 6:56 PM EDT (10/19) 8:05 AM EDT (10/19)
Length of Visible Light 11h 54m
Length of Day
11h 00m
Waxing Gibbous, 99% of the Moon is Illuminated
Oct 19
Waxing Gibbous
Oct 26
Last Quarter
Nov 3
New
Nov 10
First Quarter
Nov 17
Full

Hourly Weather History & Observations

Time (EDT) Temp. Windchill Dew Point Humidity Pressure Visibility Wind Dir Wind Speed Gust Speed Precip Events Conditions
12:17 AM 44.6 °F 43.1 °F 42.8 °F 93% 30.05 in 10.0 mi North 3.5 mph - N/A   Clear
12:37 AM 44.6 °F - 42.8 °F 93% 30.05 in 10.0 mi Calm Calm - N/A   Clear
12:57 AM 42.8 °F - 41.0 °F 93% 30.04 in 7.0 mi Calm Calm - N/A   Clear
1:17 AM 42.8 °F - 41.0 °F 93% 30.04 in 5.0 mi Calm Calm - N/A   Clear
1:37 AM 41.0 °F - 41.0 °F 100% 30.04 in 7.0 mi Calm Calm - N/A   Clear
1:57 AM 41.0 °F - 41.0 °F 100% 30.05 in 0.2 mi Calm Calm - N/A   Unknown
2:17 AM 42.8 °F - 41.0 °F 93% 30.04 in 5.0 mi Calm Calm - N/A   Clear
2:37 AM 41.0 °F - 39.2 °F 93% 30.04 in 7.0 mi Calm Calm - N/A   Clear
2:57 AM 41.0 °F - 41.0 °F 100% 30.04 in 10.0 mi Calm Calm - N/A   Clear
3:17 AM 41.0 °F - 41.0 °F 100% 30.03 in 10.0 mi Calm Calm - N/A   Clear
3:37 AM 41.0 °F - 41.0 °F 100% 30.03 in 5.0 mi Calm Calm - N/A   Clear
3:57 AM 39.2 °F - 37.4 °F 93% 30.03 in 0.5 mi Calm Calm - N/A   Unknown
4:17 AM 39.2 °F - 37.4 °F 93% 30.02 in 2.5 mi Calm Calm - N/A   Unknown
4:37 AM 37.4 °F - 37.4 °F 100% 30.01 in 0.2 mi Calm Calm - N/A   Mostly Cloudy
4:57 AM 39.2 °F - 39.2 °F 100% 30.01 in 5.0 mi Calm Calm - N/A   Clear
5:17 AM 39.2 °F - 39.2 °F 100% 30.02 in 4.0 mi Calm Calm - N/A   Clear
5:37 AM 39.2 °F - 39.2 °F 100% 30.00 in 1.5 mi Calm Calm - N/A   Scattered Clouds
5:57 AM 37.4 °F - 37.4 °F 100% 30.00 in 1.5 mi Calm Calm - N/A   Scattered Clouds
6:16 AM 37.4 °F - 37.4 °F 100% 30.00 in 0.2 mi Calm Calm - N/A   Overcast
6:37 AM 35.6 °F - 35.6 °F 100% 29.99 in 0.2 mi Calm Calm - N/A   Overcast
6:57 AM 37.4 °F - 37.4 °F 100% 29.99 in 1.8 mi Calm Calm - N/A   Scattered Clouds
7:17 AM 37.4 °F - 37.4 °F 100% 29.98 in 3.0 mi Calm Calm - N/A   Unknown
7:37 AM 37.4 °F - 37.4 °F 100% 29.98 in 1.5 mi Calm Calm - N/A   Unknown
7:58 AM 37.4 °F - 37.4 °F 100% 29.98 in 0.2 mi Calm Calm - N/A   Overcast
8:18 AM 37.4 °F - 37.4 °F 100% 29.99 in 0.2 mi Calm Calm - N/A   Overcast
8:38 AM 37.4 °F - 37.4 °F 100% 29.99 in 0.2 mi Calm Calm - N/A   Overcast
8:58 AM 39.2 °F - 39.2 °F 100% 29.99 in 0.5 mi Calm Calm - N/A   Overcast
9:18 AM 41.0 °F - 41.0 °F 100% 29.99 in 4.0 mi Calm Calm - N/A   Overcast
9:38 AM 41.0 °F - 41.0 °F 100% 29.99 in 4.0 mi Calm Calm - N/A   Overcast
9:58 AM 42.8 °F - 42.8 °F 100% 29.98 in 4.0 mi Calm Calm - N/A   Overcast
10:18 AM 42.8 °F - 42.8 °F 100% 29.96 in 7.0 mi Calm Calm - N/A   Mostly Cloudy
10:38 AM 44.6 °F - 44.6 °F 100% 29.95 in 7.0 mi Calm Calm - N/A   Mostly Cloudy
10:58 AM 46.4 °F - 44.6 °F 93% 29.95 in 7.0 mi Calm Calm - N/A   Scattered Clouds
11:18 AM 46.4 °F - 44.6 °F 93% 29.94 in 7.0 mi Calm Calm - N/A   Scattered Clouds
11:38 AM 46.4 °F - 44.6 °F 93% 29.94 in 7.0 mi Calm Calm - N/A   Scattered Clouds
11:58 AM 46.4 °F - 42.8 °F 87% 29.93 in 10.0 mi Calm Calm - N/A   Scattered Clouds
12:18 PM 48.2 °F - 44.6 °F 87% 29.92 in 10.0 mi Calm Calm - N/A   Scattered Clouds
12:38 PM 48.2 °F - 42.8 °F 82% 29.91 in 10.0 mi Calm Calm - N/A   Clear
12:58 PM 50.0 °F - 44.6 °F 82% 29.88 in 10.0 mi Calm Calm - N/A   Clear
1:17 PM 50.0 °F - 44.6 °F 82% 29.87 in 10.0 mi Calm Calm - N/A   Scattered Clouds
1:38 PM 51.8 °F - 42.8 °F 71% 29.85 in 10.0 mi Calm Calm - N/A   Scattered Clouds
1:58 PM 51.8 °F - 42.8 °F 71% 29.84 in 10.0 mi Calm Calm - N/A   Clear
2:18 PM 51.8 °F - 42.8 °F 71% 29.85 in 10.0 mi Calm Calm - N/A   Scattered Clouds
2:38 PM 53.6 °F - 42.8 °F 67% 29.86 in 10.0 mi Calm Calm - N/A   Scattered Clouds
2:58 PM 53.6 °F - 44.6 °F 72% 29.85 in 10.0 mi Calm Calm - N/A   Mostly Cloudy
3:18 PM 53.6 °F - 44.6 °F 72% 29.84 in 10.0 mi Calm Calm - N/A   Mostly Cloudy
3:38 PM 55.4 °F - 44.6 °F 67% 29.83 in 10.0 mi Calm Calm - N/A   Scattered Clouds
3:58 PM 53.6 °F - 44.6 °F 72% 29.82 in 10.0 mi Calm Calm - N/A   Scattered Clouds
4:18 PM 53.6 °F - 44.6 °F 72% 29.84 in 10.0 mi Calm Calm - N/A   Overcast
4:38 PM 53.6 °F - 44.6 °F 72% 29.84 in 10.0 mi Calm Calm - N/A   Overcast
4:59 PM 53.6 °F - 44.6 °F 72% 29.84 in 10.0 mi Calm Calm - N/A   Scattered Clouds
5:19 PM 53.6 °F - 46.4 °F 77% 29.84 in 10.0 mi NW 4.6 mph - N/A   Clear
5:39 PM 59.0 °F - 42.8 °F 55% 29.85 in 10.0 mi WSW 10.4 mph - N/A   Clear
5:59 PM 59.0 °F - 42.8 °F 55% 29.85 in 10.0 mi WSW 10.4 mph 20.7 mph N/A   Clear
6:19 PM 59.0 °F - 42.8 °F 55% 29.86 in 10.0 mi WSW 6.9 mph 26.5 mph N/A   Clear
6:39 PM 57.2 °F - 44.6 °F 63% 29.86 in 10.0 mi WSW 5.8 mph 24.2 mph N/A   Scattered Clouds
6:59 PM 57.2 °F - 44.6 °F 63% 29.86 in 10.0 mi SSW 13.8 mph 20.7 mph N/A   Scattered Clouds
7:19 PM 55.4 °F - 42.8 °F 63% 29.86 in 10.0 mi SW 13.8 mph 24.2 mph N/A   Scattered Clouds
7:39 PM 55.4 °F - 42.8 °F 63% 29.87 in 10.0 mi SSW 11.5 mph 19.6 mph N/A   Scattered Clouds
7:59 PM 55.4 °F - 42.8 °F 63% 29.87 in 10.0 mi SW 9.2 mph 20.7 mph N/A   Scattered Clouds
8:19 PM 55.4 °F - 42.8 °F 63% 29.87 in 10.0 mi SSW 11.5 mph 19.6 mph N/A   Clear
8:39 PM 55.4 °F - 42.8 °F 63% 29.87 in 10.0 mi South 6.9 mph - N/A   Mostly Cloudy
8:59 PM 55.4 °F - 42.8 °F 63% 29.88 in 10.0 mi SSW 10.4 mph 17.3 mph N/A   Mostly Cloudy
9:18 PM 55.4 °F - 44.6 °F 67% 29.90 in 10.0 mi West 4.6 mph - N/A   Overcast
9:39 PM 55.4 °F - 42.8 °F 63% 29.92 in 10.0 mi West 16.1 mph 24.2 mph N/A   Overcast
9:59 PM 53.6 °F - 41.0 °F 62% 29.94 in 10.0 mi West 15.0 mph 18.4 mph N/A   Overcast
10:19 PM 53.6 °F - 39.2 °F 58% 29.95 in 10.0 mi West 13.8 mph 26.5 mph N/A   Overcast
10:39 PM 51.8 °F - 37.4 °F 58% 29.96 in 10.0 mi SW 8.1 mph - N/A   Overcast
10:59 PM 51.8 °F - 35.6 °F 54% 29.96 in 10.0 mi WSW 4.6 mph 23.0 mph N/A   Overcast
11:19 PM 51.8 °F - 35.6 °F 54% 29.97 in 10.0 mi West 6.9 mph 19.6 mph N/A   Overcast
11:39 PM 50.0 °F - 33.8 °F 54% 29.98 in 10.0 mi West 9.2 mph 18.4 mph N/A   Overcast
11:59 PM 50.0 °F - 33.8 °F 54% 29.99 in 10.0 mi WNW 10.4 mph 16.1 mph N/A   Mostly Cloudy